Wind_Speed
18 17 17 19 19 19 18 17 15 13 11 10 10 10 10 9 9 8 8 7 7 6 5 5 5 5 6 6 7 8 9 9 10 12 12 13 14 15 16 17 18 19 20 21
17 17 16 17 18 18 18 17 16 13 11 11 11 10 10 9 9 9 8 7 7 6 6 6 6 7 8 8 9 10 10 11 12 13 14 15 16 17 17 18 19 20 21 22
16 16 16 16 17 17 16 16 14 12 11 12 11 11 10 10 10 9 9 8 8 7 7 7 8 9 10 10 11 12 12 13 14 15 16 17 18 18 19 20 21 22 23 25
16 16 15 14 16 16 16 16 14 13 13 12 11 11 11 10 10 10 10 9 9 9 9 9 10 11 12 12 13 14 15 15 16 17 18 18 19 20 21 22 23 24 26 27
16 15 14 14 15 15 16 15 14 13 13 13 13 12 11 12 12 11 11 10 10 11 11 12 12 13 14 15 15 16 17 18 18 19 20 21 22 23 24 25 26 27 28 30
17 16 14 13 15 15 16 14 14 14 14 14 14 13 12 13 12 12 12 12 13 13 14 14 15 16 17 18 18 19 20 20 21 22 23 24 25 26 27 28 29 31 32 33
19 17 15 14 15 16 15 12 14 15 14 14 14 13 13 13 14 14 14 14 15 15 16 17 18 19 19 20 21 22 22 23 24 25 26 27 28 29 30 31 33 34 35 37
20 19 15 15 16 15 14 15 15 15 15 15 15 14 14 15 15 15 16 16 17 18 19 20 21 22 22 23 24 25 25 26 27 28 29 30 31 32 33 34 36 37 39 40
20 18 17 17 17 17 17 17 16 16 16 16 16 16 16 16 17 17 18 19 20 21 22 23 23 24 25 26 27 27 28 30 30 31 32 33 34 35 36 38 39 41 42 44
22 20 20 19 19 19 18 18 18 17 17 18 18 18 18 19 19 20 21 22 23 24 25 25 26 27 28 29 30 30 31 32 33 34 35 36 37 39 40 42 43 45 46 47
23 23 22 22 22 21 21 20 20 20 20 20 20 20 21 22 23 23 24 25 26 27 28 29 30 30 31 32 33 33 34 35 36 38 39 40 41 42 44 45 47 49 50 51
25 25 25 24 24 24 24 24 23 23 22 22 23 24 24 25 26 27 27 28 29 30 31 32 33 33 34 35 36 37 38 39 40 41 42 43 44 46 47 49 51 52 53 55
29 28 28 27 27 27 27 27 26 26 26 26 26 27 28 28 29 30 31 32 33 33 34 35 35 36 38 38 39 40 41 42 43 44 45 46 47 48 50 52 54 55 57 58
33 32 31 31 30 30 30 30 30 29 29 29 30 30 31 32 33 33 34 35 36 36 37 37 38 39 40 41 42 43 43 44 45 47 47 48 50 52 53 55 56 58 60 61
37 36 35 35 34 34 33 33 33 33 33 33 34 34 35 35 36 37 38 38 39 39 40 41 41 42 43 44 44 45 46 47 48 49 50 52 54 55 57 58 59 61 62 64
39 39 38 38 37 37 37 37 37 37 37 37 37 38 38 39 40 40 41 41 41 42 43 44 44 45 45 46 46 47 48 49 51 52 53 55 57 58 60 61 62 64 65 66
41 40 40 40 40 40 40 40 40 40 40 40 41 41 41 42 42 43 43 43 44 45 45 46 46 47 47 47 48 49 50 52 53 55 56 58 59 61 62 64 65 65 66 67
41 41 42 42 42 42 42 42 42 42 43 43 43 43 43 43 43 44 45 46 46 47 47 48 48 48 49 50 51 52 53 54 55 57 58 60 62 64 65 66 67 67 68 68
42 42 42 42 42 42 42 42 43 43 43 44 44 44 44 45 45 46 47 47 48 48 48 49 49 50 50 51 52 53 54 56 58 60 61 63 65 66 67 67 68 69 69 69
41 42 42 42 43 43 43 43 44 44 44 45 45 45 46 46 46 47 48 48 48 48 49 49 49 50 51 52 54 55 57 59 61 62 64 65 66 67 68 68 69 69 69 69
40 41 41 41 42 43 43 43 43 44 44 44 45 45 45 46 46 47 47 47 48 48 49 50 51 52 54 55 57 58 60 62 63 64 65 66 67 68 68 69 70 70 70 69
40 41 41 41 42 42 42 43 43 44 44 44 45 45 46 46 47 47 48 48 49 50 51 52 53 55 57 58 59 61 62 64 65 66 66 67 68 69 70 70 70 70 70 68
41 41 41 42 42 43 43 44 44 44 45 45 45 46 47 47 48 48 49 50 51 52 53 55 56 58 59 61 62 63 64 65 66 67 68 69 70 70 71 71 71 70 69 68
41 41 42 43 43 44 44 45 45 46 46 47 47 47 48 49 50 51 52 53 54 55 56 58 59 60 62 63 64 64 66 67 68 69 70 70 71 71 71 71 70 69 67 66
42 42 43 44 44 45 45 46 46 47 48 48 49 49 50 51 52 53 54 55 56 58 59 60 61 62 63 64 65 66 67 69 70 70 70 70 70 70 70 69 68 66 64 62
44 44 44 45 45 46 47 47 48 48 49 50 51 52 53 54 54 55 57 58 59 60 61 61 62 64 65 66 67 68 69 70 70 70 70 69 69 68 67 65 63 61 59 56
45 45 45 46 46 47 47 48 49 49 51 52 53 54 55 56 56 57 58 59 60 61 62 63 64 65 66 67 68 69 70 69 69 68 68 67 65 64 62 59 57 54 52 51
Wind_Direction
185 187 194 199 202 206 210 214 221 222 217 212 211 208 207 209 213 216 216 215 215 216 223 234 248 264 275 285 295 302 304 308 314 319 322 325 327 330 332 333 335 337 338 338
188 190 199 204 207 211 214 218 222 223 220 218 214 211 212 216 218 220 222 224 226 229 237 248 260 269 276 284 291 296 300 304 309 313 316 319 321 322 323 325 327 329 331 332
193 199 205 205 207 212 214 219 221 218 215 214 213 214 218 221 223 226 229 233 236 242 251 259 266 272 278 284 290 294 298 301 305 308 310 312 314 315 317 319 321 323 325 326
208 211 212 201 204 208 213 218 217 214 211 210 214 217 219 223 227 231 235 239 244 253 260 267 271 275 280 285 289 292 295 298 300 303 305 307 308 310 311 313 315 317 319 320
218 219 214 206 207 210 214 217 218 215 213 215 219 222 223 227 230 235 241 246 252 260 266 270 275 279 282 285 288 291 293 295 297 299 301 302 304 306 307 309 311 313 314 315
223 225 218 211 213 213 215 216 217 218 218 219 221 223 225 232 237 244 249 254 258 264 269 273 277 280 283 285 288 290 292 294 295 297 299 300 301 303 305 306 308 310 311 312
224 225 218 212 214 216 217 213 217 219 221 223 224 226 231 237 243 249 256 261 264 269 273 276 278 281 283 285 287 289 291 293 294 295 296 298 300 301 303 305 307 308 310 310
223 223 216 216 217 220 219 218 220 223 226 229 231 234 238 244 249 255 260 264 268 272 276 277 279 281 283 284 286 287 289 291 293 294 295 296 298 300 302 303 305 307 308 309
224 224 222 222 222 222 223 224 226 230 232 234 237 240 245 250 254 259 263 267 271 274 277 279 280 282 283 284 286 287 289 290 292 293 294 295 297 299 301 303 304 305 306 307
226 226 228 228 228 229 229 231 233 235 237 239 242 245 250 254 258 263 266 270 274 276 278 279 281 283 284 285 287 288 289 290 291 293 294 295 296 298 300 301 303 304 305 306
229 229 231 232 233 234 235 236 238 240 243 246 248 251 255 258 262 265 268 272 275 278 280 281 282 284 285 286 287 287 288 290 291 292 293 295 296 297 299 301 302 304 304 305
235 234 235 236 237 238 240 241 242 245 247 249 253 256 259 262 265 267 270 273 276 279 280 282 283 284 285 285 286 287 288 290 290 291 293 294 296 297 299 301 302 303 304 304
239 239 240 239 240 241 243 245 247 248 250 253 256 259 261 264 267 269 272 275 277 278 280 282 283 283 284 285 286 287 288 289 290 291 293 294 296 297 299 301 302 303 303 303
242 242 243 243 244 245 247 249 251 252 254 255 258 261 263 266 268 271 273 275 277 279 280 281 282 283 284 285 286 287 289 290 291 292 293 294 296 297 299 300 301 302 302 302
244 245 245 246 246 247 249 250 253 255 257 259 261 263 265 267 269 272 274 275 277 278 280 281 282 283 284 285 286 287 289 290 291 292 293 294 296 298 299 300 301 301 302 302
245 246 248 249 250 250 252 253 255 257 259 261 263 265 266 268 271 273 274 275 276 278 280 281 282 283 284 285 286 288 289 290 291 292 294 295 297 298 299 300 301 301 302 302
246 248 250 251 252 253 255 256 257 259 261 262 264 266 268 269 271 272 274 275 277 278 280 281 282 283 284 285 286 288 289 290 292 293 295 296 297 298 299 300 300 301 301 302
248 249 250 251 253 254 256 257 259 260 262 263 265 267 268 270 271 272 274 276 277 279 280 281 282 283 284 286 287 288 290 291 293 294 295 296 297 298 299 299 300 301 301 302
249 250 251 252 254 256 257 259 260 262 263 264 266 267 269 270 272 273 275 276 278 279 280 281 282 284 286 287 288 290 291 292 293 294 295 296 297 298 298 299 300 301 302 302
250 251 252 254 255 256 258 260 262 263 265 266 268 269 270 271 272 274 275 277 278 279 280 281 283 284 286 288 289 290 292 293 294 295 296 296 297 298 298 299 300 301 302 302
251 252 253 254 255 257 259 260 262 263 265 266 268 269 271 272 273 275 276 277 278 279 281 282 284 285 287 288 290 291 292 293 294 295 296 297 297 298 299 299 300 301 301 301
251 252 253 255 256 257 259 261 262 264 265 267 268 270 271 272 273 275 276 277 278 280 281 283 285 286 288 289 290 292 293 294 295 295 296 297 297 298 299 299 300 301 301 300
251 252 254 255 257 258 260 261 263 265 267 268 269 270 271 272 274 275 276 278 279 281 283 285 286 288 289 290 291 292 293 294 294 295 296 297 297 298 299 300 300 300 300 300
251 252 254 256 258 259 260 262 264 266 267 269 270 271 272 274 275 276 277 279 281 282 284 286 287 288 289 290 291 292 293 293 294 295 296 296 297 298 298 299 299 299 298 299
252 254 255 257 258 260 261 263 264 266 268 269 271 272 274 275 276 278 279 281 282 284 285 286 287 288 289 290 291 292 293 293 294 295 295 296 297 297 298 298 298 298 297 298
254 255 257 258 260 261 263 264 266 267 268 270 271 273 274 276 277 278 280 281 282 284 285 286 287 288 289 290 291 292 293 294 295 296 296 296 297 298 298 298 298 297 297 297
256 258 259 260 261 263 264 266 267 269 270 271 272 274 275 277 278 280 281 283 284 285 286 287 288 289 290 291 292 293 294 295 295 296 296 297 298 298 298 298 298 297 297 296
Height
5821 5823 5826 5828 5831 5834 5836 5838 5841 5843 5845 5848 5850 5852 5853 5855 5856 5857 5859 5860 5861 5862 5863 5864 5864 5864 5863 5863 5863 5862 5861 5860 5858 5856 5855 5853 5850 5848 5846 5843 5840 5837 5834 5831
5820 5822 5824 5826 5828 5831 5833 5836 5838 5841 5843 5846 5848 5849 5851 5853 5854 5856 5857 5858 5859 5860 5861 5861 5861 5861 5861 5861 5860 5859 5858 5857 5855 5853 5852 5850 5847 5845 5843 5840 5837 5834 5831 5828
5818 5820 5822 5825 5827 5829 5831 5833 5836 5838 5842 5843 5845 5847 5849 5850 5852 5853 5854 5856 5857 5857 5858 5859 5859 5859 5858 5858 5857 5856 5854 5853 5852 5850 5848 5846 5844 5841 5839 5836 5833 5830 5827 5823
5816 5819 5820 5825 5825 5827 5829 5831 5834 5836 5838 5841 5843 5844 5846 5848 5849 5850 5852 5853 5854 5854 5855 5855 5856 5855 5855 5854 5853 5852 5851 5849 5848 5846 5844 5842 5839 5837 5834 5831 5828 5825 5822 5818
5814 5815 5818 5821 5823 5824 5826 5829 5831 5833 5836 5838 5840 5841 5844 5845 5846 5847 5849 5850 5851 5851 5852 5852 5852 5851 5850 5850 5849 5847 5846 5844 5843 5841 5839 5836 5834 5831 5829 5826 5822 5819 5815 5812
5811 5813 5815 5820 5821 5822 5824 5826 5829 5830 5832 5835 5837 5839 5841 5841 5843 5844 5845 5846 5847 5847 5847 5847 5847 5846 5846 5844 5843 5842 5841 5839 5837 5835 5833 5830 5828 5825 5822 5819 5816 5812 5808 5804
5807 5809 5812 5816 5817 5819 5822 5825 5826 5827 5829 5831 5834 5836 5837 5838 5839 5840 5841 5841 5842 5842 5842 5842 5842 5841 5840 5839 5838 5836 5834 5832 5830 5828 5826 5823 5820 5818 5814 5811 5808 5804 5800 5796
5803 5805 5811 5812 5813 5816 5818 5820 5821 5823 5825 5827 5829 5831 5832 5833 5834 5835 5836 5836 5836 5836 5837 5836 5836 5835 5834 5832 5831 5829 5827 5825 5823 5821 5818 5815 5813 5809 5806 5802 5799 5795 5790 5786
5799 5804 5805 5807 5809 5811 5813 5815 5817 5819 5821 5823 5824 5826 5827 5828 5829 5830 5830 5830 5831 5830 5830 5829 5829 5828 5826 5825 5824 5822 5820 5817 5815 5812 5810 5807 5804 5800 5797 5793 5789 5784 5780 5775
5794 5797 5800 5802 5804 5806 5808 5811 5813 5814 5816 5818 5819 5820 5821 5822 5823 5824 5824 5824 5824 5824 5823 5822 5821 5820 5818 5817 5815 5813 5811 5809 5806 5803 5800 5797 5794 5790 5786 5782 5778 5773 5768 5763
5788 5791 5793 5796 5798 5801 5803 5805 5807 5809 5810 5812 5813 5814 5815 5816 5816 5817 5817 5817 5817 5816 5815 5814 5813 5811 5810 5808 5806 5804 5801 5799 5796 5793 5790 5787 5783 5779 5775 5770 5765 5760 5755 5749
5782 5785 5787 5790 5792 5794 5796 5798 5800 5802 5804 5805 5806 5807 5808 5808 5809 5809 5809 5809 5808 5807 5806 5805 5803 5802 5800 5798 5796 5794 5791 5789 5786 5783 5779 5775 5772 5767 5762 5757 5752 5746 5740 5734
5774 5777 5779 5782 5784 5786 5788 5790 5792 5794 5796 5797 5798 5799 5799 5800 5800 5800 5800 5799 5799 5798 5796 5795 5794 5792 5790 5787 5785 5783 5780 5777 5774 5771 5767 5763 5759 5755 5750 5745 5738 5732 5726 5719
5765 5768 5771 5773 5776 5778 5780 5781 5783 5785 5787 5788 5789 5790 5790 5790 5790 5790 5790 5789 5788 5787 5786 5784 5782 5780 5778 5776 5773 5771 5768 5765 5761 5758 5754 5750 5745 5741 5736 5731 5725 5719 5711 5704
5755 5758 5761 5764 5766 5768 5770 5772 5774 5775 5777 5778 5779 5780 5780 5780 5780 5779 5778 5778 5777 5775 5774 5772 5771 5768 5766 5763 5761 5758 5755 5752 5748 5744 5740 5736 5731 5726 5720 5715 5709 5702 5696 5688
5745 5748 5750 5753 5756 5758 5760 5762 5763 5765 5766 5767 5768 5768 5768 5768 5768 5768 5767 5766 5765 5763 5761 5760 5758 5755 5753 5750 5748 5745 5741 5738 5734 5729 5725 5720 5715 5710 5704 5698 5691 5685 5678 5670
5734 5737 5740 5742 5745 5747 5749 5751 5752 5753 5754 5755 5756 5756 5756 5756 5756 5755 5754 5753 5752 5750 5748 5746 5744 5742 5739 5737 5734 5731 5727 5723 5719 5714 5710 5704 5699 5693 5687 5680 5674 5667 5660 5652
5723 5726 5728 5730 5732 5735 5736 5738 5739 5741 5742 5742 5743 5743 5743 5743 5743 5742 5741 5740 5738 5737 5735 5732 5730 5728 5726 5723 5719 5716 5712 5708 5703 5698 5693 5688 5682 5675 5669 5662 5655 5648 5642 5634
5711 5713 5716 5718 5720 5722 5724 5725 5726 5727 5728 5729 5730 5730 5730 5730 5729 5728 5727 5726 5724 5723 5720 5718 5716 5713 5711 5707 5704 5700 5696 5692 5687 5682 5676 5670 5664 5657 5651 5644 5637 5630 5622 5615
5698 5701 5703 5705 5707 5709 5711 5712 5713 5714 5715 5715 5716 5716 5716 5715 5715 5714 5713 5711 5710 5708 5705 5703 5701 5698 5695 5692 5688 5684 5679 5675 5670 5664 5658 5652 5646 5639 5632 5625 5618 5611 5603 5596
5686 5688 5690 5692 5694 5696 5698 5699 5700 5700 5701 5701 5702 5702 5702 5701 5700 5699 5698 5697 5695 5692 5690 5688 5685 5682 5679 5675 5671 5667 5662 5657 5652 5646 5640 5634 5627 5621 5614 5606 5599 5591 5584 5576
5673 5675 5677 5679 5681 5683 5684 5685 5686 5687 5687 5688 5688 5688 5687 5687 5686 5684 5683 5682 5679 5677 5675 5672 5669 5666 5662 5658 5654 5649 5644 5639 5633 5627 5621 5615 5608 5601 5595 5587 5580 5572 5565 5557
5660 5662 5664 5666 5668 5669 5670 5671 5672 5673 5673 5673 5673 5673 5672 5672 5670 5669 5668 5666 5663 5661 5659 5656 5652 5649 5645 5640 5636 5631 5626 5620 5614 5608 5602 5595 5588 5581 5574 5567 5560 5552 5545 5538
5647 5649 5651 5653 5654 5655 5657 5657 5658 5658 5658 5658 5658 5658 5657 5656 5655 5653 5651 5649 5647 5644 5642 5638 5634 5631 5626 5622 5617 5612 5607 5601 5595 5589 5582 5576 5569 5561 5554 5547 5540 5533 5526 5519
5633 5635 5637 5639 5640 5641 5642 5643 5643 5644 5644 5643 5643 5642 5641 5639 5638 5637 5634 5632 5630 5627 5624 5620 5616 5612 5607 5603 5598 5593 5587 5581 5575 5569 5562 5556 5549 5542 5535 5527 5520 5513 5507 5500
5619 5621 5623 5624 5626 5626 5627 5628 5628 5628 5628 5627 5627 5626 5624 5623 5621 5619 5617 5614 5612 5608 5605 5601 5597 5593 5588 5583 5578 5573 5567 5561 5555 5548 5542 5535 5528 5522 5515 5508 5501 5495 5488 5483
5605 5607 5608 5610 5611 5611 5612 5612 5612 5612 5611 5611 5610 5609 5607 5605 5603 5601 5599 5596 5593 5589 5586 5582 5578 5573 5568 5563 5558 5552 5546 5540 5534 5528 5521 5515 5509 5502 5496 5489 5483 5478 5472 5467